Terug naar catalogus

STARLINK-36768

ActiefCommunicatieSSO
NORAD 67803·PAYLOAD·🇺🇸 United States

Gelanceerd Feb 15, 2026 vanaf Vandenberg Space Force Base

Loading…

Volgende Passages (komende 24 uur)

TLE

VersSource: CelesTrak SupGP

Epoch: Sep 15, 2026, 04:18 UTC

1 67803C 26032G   26258.17965278 -.00056094  00000+0 -17414-2 0  2587
2 67803  97.2851  84.6065 0001543  90.4459   4.1968 15.33464939    17

Volg STARLINK-36768 in realtime met AllMySat

Download on the App Store